Погода в Долматово

Россия / Московская область     55°19′41″N   37°44′10″E
темп.,
°C
ветер,
м/с
пор.,
м/с
влажн.,
%
обл.,
%
осадки,
мм/ч
давл.,
гПа
погр.,
м
20 апреля, вт
вт2000:00+3в61186100 0.0 1023715
03:00+2всв51296100 0.2 1022489
06:00+3всв51179100 0.0 1021540
09:00+5в61075100 0.0 1021627
12:00+3в61294100 0.1 1020630
15:00+3в51296100 2.1 1019648
18:00+2в51397100 1.8 1017674
21:00+2в51097100 1.9 1014646
21 апреля, ср
ср2100:00+2всв51097100 0.1 1011505
03:00+1св41098100 2.8 1007406
06:00+1с4899100 2.9 1003335
09:00+1зсз36100100 6.3 1003221
12:00+2зюз5898100 0.2 1005573
15:00+4зюз4792100 0.4 1008773
18:00+4юз4891100 0.0 1009514
21:00+3ююз3796100 0.1 1012245
22 апреля, чт
чт2200:00+3ююз3894100 0.0 1012231
03:00+3ююз4895100 0.0 1014255
06:00+3ююз3895100 0.0 1015255
09:00+7ююз578298 0.0 1016550
12:00+10ююз566424 0.1 10161229
15:00+11ююз565856 0.3 10161629
18:00+11ю486658 0.0 1016505
21:00+7ююв511876 0.0 1016227
23 апреля, пт
пт2300:00+6ююв4119297 0.0 1016260
03:00+6ю4109578 0.0 1016207
06:00+6ю4129462 0.0 1016275
09:00+12ю61272100 0.0 1016530
12:00+15ю7115713 0.2 10151774
15:00+15ю61152100 0.6 10152151
18:00+13ю7135899 0.1 1014753
21:00+10ююв515725 0.1 1013468
24 апреля, сб
сб2400:00+9ююв716778 0.0 1011575
03:00+8ююв6148799 0.1 1010459
06:00+7ююв51293100 0.2 1008593
09:00+3з5896100 2.8 1009404
12:00+4з4995100 1.9 1010555
15:00+7з4669100 2.0 10101239
18:00+7з3572100 0.3 1009773
21:00+4юз3581100 0.4 101092